This is the latest recevied weather packets stored in our database for station/object KB1FFS. If no packets are shown the sender has not sent any weather packets the latest 10 day(s).
| Time | Temp. | Humidity | Pressure | Rain* | Wind** | Luminosity | Snow |
|---|---|---|---|---|---|---|---|
| 1787988253 | 28.33° C | 56% | 1017.6 hPa | 0 mm | - | 0 W/m² | - |
| 1787987948 | 28.89° C | 56% | 1017.7 hPa | 0 mm | - | 0 W/m² | - |
| 1787987649 | 28.89° C | 56% | 1017.9 hPa | 0 mm | - | 0 W/m² | - |
| 1787987349 | 28.89° C | 55% | 1017.7 hPa | 0 mm | - | 0 W/m² | - |
| 1787987045 | 28.89° C | 54% | 1018 hPa | 0 mm | - | 0 W/m² | - |
| 1787986743 | 29.44° C | 54% | 1017.8 hPa | 0 mm | - | 0 W/m² | - |
| 1787986443 | 29.44° C | 53% | 1017.9 hPa | 0 mm | - | 0 W/m² | - |
| 1787986138 | 29.44° C | 52% | 1017.8 hPa | 0 mm | - | 0 W/m² | - |
| 1787985838 | 30° C | 51% | 1017.8 hPa | 0 mm | - | 0 W/m² | - |
| 1787985537 | 30° C | 51% | 1017.8 hPa | 0 mm | - | 0 W/m² | - |
| 1787985233 | 30.56° C | 50% | 1017.7 hPa | 0 mm | - | 0 W/m² | - |
| 1787984931 | 30.56° C | 49% | 1017.8 hPa | 0 mm | - | 0 W/m² | - |
| 1787984627 | 30.56° C | 49% | 1017.9 hPa | 0 mm | - | 0 W/m² | - |
| 1787984322 | 30.56° C | 49% | 1018 hPa | 0 mm | - | 0 W/m² | - |
| 1787984020 | 30.56° C | 48% | 1017.9 hPa | 0 mm | - | 0 W/m² | - |
| 1787983716 | 31.11° C | 47% | 1017.7 hPa | 0 mm | - | 0 W/m² | - |
| 1787983410 | 31.11° C | 47% | 1017.7 hPa | 0 mm | - | 0 W/m² | - |
| 1787983105 | 31.11° C | 47% | 1017.6 hPa | 0 mm | - | 0 W/m² | - |
| 1787982801 | 31.67° C | 45% | 1017.8 hPa | 0 mm | - | 0 W/m² | - |
| 1787982496 | 31.67° C | 45% | 1017.7 hPa | 0 mm | - | 0 W/m² | - |
| 1787982192 | 31.67° C | 44% | 1017.6 hPa | 0 mm | - | 0 W/m² | - |
| 1787981888 | 31.67° C | 44% | 1017.8 hPa | 0 mm | - | 0 W/m² | - |
| 1787981587 | 31.67° C | 44% | 1017.7 hPa | 0 mm | - | 0 W/m² | - |
| 1787981282 | 31.11° C | 45% | 1017.5 hPa | 0 mm | - | 0 W/m² | - |
| 1787980981 | 30.56° C | 46% | 1017.5 hPa | 0 mm | - | 0 W/m² | - |
* Rain latest hour (hover to see other rain measurements)
** Current wind speed in m/s (hover to see current wind gust speed)